Seminole, TX

5:07 PM CST on February 24, 2017 (GMT -0600)
Seminole

Weather History for KGNC - October, 2013

Change the Weather History Date:

Wednesday, October 30, 2013

  Actual Average (KHOB) Record (KHOB)
Temperature  
Mean Temperature 68 °F -  
Max Temperature 77 °F 68 °F 86 °F (2010)
Min Temperature 59 °F 43 °F 31 °F (1949)
Cooling Degree Days 2    
Growing Degree Days 18 (Base 50)    
Moisture  
Dew Point 56 °F    
Average Humidity 73    
Maximum Humidity 97    
Minimum Humidity 31    
Precipitation  
Precipitation 0.00 in - - ()
Sea Level Pressure  
Sea Level Pressure 29.93 in    
Wind  
Wind Speed 10 mph (SSW)    
Max Wind Speed 17 mph    
Max Gust Speed 23 mph    
Visibility 9 miles    
Events Rain    
Averages and records for this station are not official NWS values.
T = Trace of Precipitation, MM = Missing Value Source: NWS Daily Summary

Daily Weather History Graph

Daily Weather History Graph

Search for Another Location

Airport or City:

Trip Planner

Search our weather history database for the weather conditions in past years. The results will help you decide how hot, cold, wet, or windy it might be!

Date:

Astronomy

Oct. 30, 2013 Rise Set
Actual Time 8:06 AM CDT 7:01 PM CDT
Civil Twilight 7:41 AM CDT 7:26 PM CDT
Nautical Twilight 7:12 AM CDT 7:55 PM CDT
Astronomical Twilight 6:43 AM CDT 8:24 PM CDT
Moon 4:10 AM CDT (10/30) 4:36 PM CDT (10/30)
Length of Visible Light 11h 45m
Length of Day
10h 54m
Waning Crescent, 17% of the Moon is Illuminated
Oct 30
Waning Crescent
Nov 3
New
Nov 9
First Quarter
Nov 17
Full
Nov 25
Last Quarter

Hourly Weather History & Observations

Time (CDT) Temp. Dew Point Humidity Pressure Visibility Wind Dir Wind Speed Gust Speed Precip Events Conditions
12:15 AM 65.3 °F 61.7 °F 88% 29.98 in 7.0 mi SSE 10.4 mph - N/A   Clear
12:35 AM 65.8 °F 62.6 °F 89% 29.97 in 10.0 mi SSE 13.8 mph - N/A   Clear
12:55 AM 66.2 °F 63.0 °F 89% 29.97 in 10.0 mi South 13.8 mph 19.6 mph N/A   Mostly Cloudy
1:15 AM 66.2 °F 63.1 °F 90% 29.97 in 10.0 mi South 10.4 mph 18.4 mph N/A   Scattered Clouds
1:35 AM 66.0 °F 63.1 °F 90% 29.97 in 10.0 mi South 12.7 mph - N/A   Scattered Clouds
1:55 AM 65.8 °F 63.1 °F 91% 29.96 in 10.0 mi South 10.4 mph - N/A   Mostly Cloudy
2:15 AM 66.2 °F 63.1 °F 90% 29.96 in 10.0 mi South 11.5 mph - N/A   Overcast
2:35 AM 66.2 °F 63.5 °F 91% 29.96 in 10.0 mi South 12.7 mph 18.4 mph N/A   Overcast
2:55 AM 66.2 °F 63.1 °F 90% 29.95 in 10.0 mi South 12.7 mph 21.9 mph N/A   Overcast
3:15 AM 66.0 °F 63.1 °F 90% 29.94 in 10.0 mi South 12.7 mph - N/A   Overcast
3:35 AM 65.8 °F 63.5 °F 92% 29.94 in 10.0 mi South 15.0 mph - N/A   Mostly Cloudy
3:55 AM 65.8 °F 63.5 °F 92% 29.94 in 10.0 mi SSW 11.5 mph - N/A   Overcast
4:15 AM 66.2 °F 63.5 °F 91% 29.94 in 10.0 mi SSW 10.4 mph 13.8 mph N/A   Overcast
4:35 AM 66.4 °F 63.5 °F 90% 29.94 in 10.0 mi SSW 12.7 mph 18.4 mph N/A   Overcast
4:55 AM 66.4 °F 63.5 °F 90% 29.93 in 10.0 mi SSW 9.2 mph - N/A   Overcast
5:15 AM 66.2 °F 63.5 °F 91% 29.93 in 7.0 mi SSW 11.5 mph - N/A   Overcast
5:35 AM 65.7 °F 63.5 °F 93% 29.93 in 7.0 mi South 11.5 mph 17.3 mph N/A   Overcast
5:55 AM 65.3 °F 63.5 °F 94% 29.93 in 7.0 mi SSW 10.4 mph - N/A   Mostly Cloudy
6:15 AM 65.3 °F 63.5 °F 94% 29.94 in 7.0 mi SSW 8.1 mph - N/A   Overcast
6:35 AM 64.9 °F 63.5 °F 95% 29.95 in 5.0 mi SSW 6.9 mph - N/A   Overcast
6:55 AM 64.4 °F 63.0 °F 95% 29.95 in 5.0 mi SSW 5.8 mph - N/A   Mostly Cloudy
7:15 AM 63.9 °F 62.6 °F 96% 29.96 in 4.0 mi WSW 4.6 mph - N/A   Scattered Clouds
7:35 AM 63.9 °F 62.6 °F 96% 29.96 in 5.0 mi SSW 4.6 mph - N/A   Scattered Clouds
7:55 AM 63.5 °F 62.2 °F 96% 29.96 in 4.0 mi Calm Calm - N/A   Scattered Clouds
8:15 AM 63.0 °F 61.9 °F 96% 29.96 in 4.0 mi South 4.6 mph - N/A   Scattered Clouds
8:35 AM 62.6 °F 61.7 °F 97% 29.97 in 2.0 mi Calm Calm - N/A   Clear
8:55 AM 63.3 °F 62.4 °F 97% 29.99 in 2.5 mi SSW 5.8 mph - N/A   Clear
9:15 AM 63.9 °F 63.0 °F 97% 29.99 in 4.0 mi SSW 6.9 mph - N/A   Clear
9:35 AM 64.4 °F 63.1 °F 96% 30.00 in 5.0 mi SW 5.8 mph - N/A   Clear
9:55 AM 64.9 °F 62.8 °F 93% 30.00 in 7.0 mi SW 6.9 mph - N/A   Clear
10:15 AM 66.4 °F 61.2 °F 83% 30.00 in 10.0 mi WSW 9.2 mph - N/A   Clear
10:35 AM 67.8 °F 57.4 °F 69% 30.00 in 10.0 mi WSW 10.4 mph - N/A   Clear
10:55 AM 68.2 °F 55.6 °F 64% 30.00 in 10.0 mi WSW 9.2 mph - N/A   Clear
11:15 AM 68.9 °F 53.1 °F 57% 29.99 in 10.0 mi WSW 9.2 mph - N/A   Clear
11:35 AM 69.8 °F 48.6 °F 47% 30.00 in 10.0 mi WSW 11.5 mph - N/A   Scattered Clouds
11:55 AM 70.5 °F 47.3 °F 44% 29.99 in 10.0 mi WSW 11.5 mph 16.1 mph N/A   Scattered Clouds
12:15 PM 71.1 °F 46.4 °F 41% 29.99 in 10.0 mi WSW 12.7 mph - N/A   Scattered Clouds
12:35 PM 71.1 °F 46.2 °F 41% 29.98 in 10.0 mi WSW 9.2 mph 17.3 mph N/A   Clear
12:55 PM 71.1 °F 45.7 °F 40% 29.97 in 10.0 mi WSW 8.1 mph - N/A   Clear
1:15 PM 71.1 °F 46.0 °F 41% 29.96 in 10.0 mi WSW 6.9 mph - N/A   Clear
1:35 PM 71.2 °F 45.5 °F 40% 29.96 in 10.0 mi WSW 6.9 mph - N/A   Scattered Clouds
1:55 PM 71.8 °F 47.8 °F 43% 29.93 in 10.0 mi South 9.2 mph - N/A   Clear
2:15 PM 72.0 °F 48.6 °F 43% 29.93 in 10.0 mi SSW 8.1 mph - N/A   Clear
2:35 PM 72.7 °F 48.0 °F 42% 29.91 in 10.0 mi South 9.2 mph - N/A   Clear
2:55 PM 73.9 °F 47.3 °F 39% 29.89 in 10.0 mi SSW 12.7 mph - N/A   Clear
3:15 PM 73.9 °F 50.2 °F 43% 29.89 in 10.0 mi South 10.4 mph 17.3 mph N/A   Clear
3:35 PM 74.7 °F 46.6 °F 37% 29.89 in 10.0 mi South 15.0 mph - N/A   Scattered Clouds
3:55 PM 74.7 °F 46.2 °F 36% 29.88 in 10.0 mi SSW 13.8 mph - N/A   Mostly Cloudy
4:15 PM 76.3 °F 43.9 °F 31% 29.87 in 10.0 mi SSW 16.1 mph 20.7 mph N/A   Mostly Cloudy
4:35 PM 75.2 °F 43.5 °F 32% 29.87 in 10.0 mi SSW 17.3 mph - N/A   Mostly Cloudy
4:55 PM 75.2 °F 45.5 °F 35% 29.86 in 10.0 mi SSW 15.0 mph - N/A   Mostly Cloudy
5:15 PM 74.7 °F 46.4 °F 37% 29.85 in 10.0 mi SSW 15.0 mph - N/A   Mostly Cloudy
5:35 PM 74.3 °F 45.9 °F 36% 29.84 in 10.0 mi SSW 13.8 mph - N/A   Scattered Clouds
5:55 PM 73.8 °F 46.6 °F 38% 29.84 in 10.0 mi SSW 10.4 mph - N/A   Mostly Cloudy
6:15 PM 73.0 °F 45.5 °F 37% 29.84 in 10.0 mi SSW 10.4 mph - N/A   Mostly Cloudy
7:55 PM 60.8 °F 54.0 °F 78% 29.86 in 10.0 mi West 5.8 mph - N/A   Mostly Cloudy
8:15 PM 60.8 °F 54.1 °F 79% 29.88 in 10.0 mi West 11.5 mph - N/A   Mostly Cloudy
8:35 PM 61.9 °F 53.8 °F 75% 29.89 in 10.0 mi West 16.1 mph 20.7 mph N/A   Light Drizzle
8:55 PM 60.1 °F 54.7 °F 82% 29.86 in 7.0 mi NW 9.2 mph 23.0 mph N/A Rain Rain
9:15 PM 59.2 °F 55.6 °F 88% 29.88 in 10.0 mi West 5.8 mph - N/A   Overcast
9:35 PM 59.7 °F 55.2 °F 85% 29.88 in 10.0 mi SW 12.7 mph 17.3 mph N/A Rain Light Rain
9:55 PM 59.7 °F 54.7 °F 83% 29.86 in 10.0 mi SW 8.1 mph - N/A   Mostly Cloudy
10:15 PM 59.5 °F 54.0 °F 82% 29.85 in 10.0 mi SW 10.4 mph - N/A   Scattered Clouds
10:35 PM 59.9 °F 53.8 °F 80% 29.86 in 10.0 mi SW 12.7 mph - N/A   Mostly Cloudy
10:55 PM 59.9 °F 54.5 °F 82% 29.86 in 10.0 mi SW 11.5 mph - N/A   Mostly Cloudy
11:15 PM 59.9 °F 54.7 °F 83% 29.86 in 10.0 mi WSW 8.1 mph - N/A   Scattered Clouds
11:35 PM 60.1 °F 54.7 °F 82% 29.86 in 10.0 mi WSW 10.4 mph - N/A   Mostly Cloudy
11:55 PM 60.8 °F 54.5 °F 80% 29.86 in 10.0 mi SW 11.5 mph - N/A   Overcast